Flag for Japan Weather past 2 weeks in Minamisōma, Japan

Now
72 °F

Passing clouds.


Feels Like: 69 °F
Forecast: 61 / 84 °F
Wind: 3 mph from East

Location: Sendai Airport

Current Time: Jul 28, 2014 at 11:59:33 PM

Latest Report: Jul 28, 2014 at 9:00 PM


Visibility: N/A

Pressure: 29.86 "Hg

Humidity: 88%

Dew point: 68 °F

Location of MinamisōmaLocation

Historic Weather in Minamisōma — Graph

°F

Minamisōma temperature yesterday

Maximum temperature yesterday: 91 °F (at 12:00 PM)
Minimum temperature yesterday: 75 °F (at 9:00 PM)
Average temperature yesterday: 85 °F

Past Weeks' High & Low Weather Summary

 TemperatureHumidityPressure
High91 °F (Jul 27, 12:00 PM)100% (Jul 13, 9:00 PM)29.98 "Hg (Jul 13, 9:00 PM)
Low66 °F (Jul 20, 6:00 AM)40% (Jul 28, 1:00 PM)29.56 "Hg (Jul 27, 1:00 PM)
Average76 °F82%29.81 "Hg
* Reported Jul 13 9:00 PM — Jul 28 9:00 PM, Minamisōma, Weather by CustomWeather, © 2014

Note: Actual official high and low records may vary slightly from our data, if they occured in-between our weather recording intervals... More about our weather records

Advertising

Minamisōma weather history for previous 24 hours

 ConditionsComfort  
Time TempWeatherWind HumidityBarometerVisibility
9:00 PM
Jul 28
72 °FPassing clouds.3 mph88%29.86 "HgN/A
8:00 PM72 °FPassing clouds.5 mph88%29.83 "HgN/A
7:00 PM73 °FPassing clouds.8 mph83%29.80 "HgN/A
6:00 PM75 °FScattered clouds.10 mph74%29.80 "HgN/A
5:00 PM84 °FPassing clouds.9 mph43%29.74 "HgN/A
4:00 PM84 °FScattered clouds.9 mph48%29.74 "HgN/A
3:00 PM86 °FScattered clouds.12 mph40%29.74 "HgN/A
2:00 PM84 °FBroken clouds.16 mph43%29.74 "HgN/A
1:00 PM86 °FScattered clouds.14 mph40%29.74 "HgN/A
12:00 PM86 °FPassing clouds.16 mph43%29.74 "HgN/A
11:00 AM84 °FPassing clouds.16 mph45%29.74 "HgN/A
10:00 AM82 °FPassing clouds.18 mph45%29.74 "HgN/A
9:00 AM79 °FPassing clouds.18 mph54%29.77 "HgN/A
8:00 AM79 °FPassing clouds.13 mph54%29.74 "HgN/A
7:00 AM75 °FPassing clouds.8 mph61%29.74 "HgN/A
6:00 AM72 °FPassing clouds.2 mph69%29.74 "HgN/A
Weather by CustomWeather, © 2014

See weather overviewHow to use our weather pages